Back to catalog

COSMOS 2251 DEB

AliveLEO
NORAD 34883·DEBRIS·🇷🇺 Russia

Launched Jun 16, 1993 from Plesetsk Cosmodrome

Loading…

Next Passes (next 24 hours)

TLE

FreshSource: Space-Track

Epoch: Sep 14, 2026, 00:55 UTC

1 34883U 93036ACW 26257.03821283  .00011321  00000-0  23457-2 0  9997
2 34883  74.1954 266.4927 0084272   1.2421 358.8937 14.58058622904442

Track COSMOS 2251 DEB in real time with AllMySat

Download on the App Store